• In Germany
  • List of Countries
  • For 7 days
  • Water Temperature
  • Satellite Maps
  • Weather Map
  • Weather Widgets
  • user-avatar
    Login

    Hourly Weather Rangpur

    Today, 21 November, Tuesday

    Time Temperature Precipitation Wind Pressure Humidity
    00:00 +24°C° 0 mm 1 mps 755 mmHg 64%
    01:00 +23°C° 0 mm 1 mps 755 mmHg 66%
    02:00 +23°C° 0 mm 1 mps 755 mmHg 68%
    03:00 +23°C° 0 mm 1 mps 755 mmHg 70%
    04:00 +22°C° 0 mm 1 mps 755 mmHg 72%
    05:00 +22°C° 0 mm 1 mps 755 mmHg 73%
    06:00 +21°C° 0 mm 1 mps 755 mmHg 75%
    07:00 +23°C° 0 mm 1 mps 756 mmHg 72%
    08:00 +24°C° 0 mm 2 mps 756 mmHg 68%
    09:00 +25°C° 0 mm 2 mps 757 mmHg 65%
    10:00 +27°C° 0 mm 2 mps 757 mmHg 59%
    11:00 +28°C° 0 mm 2 mps 757 mmHg 54%
    12:00 +29°C° 0 mm 1 mps 756 mmHg 49%
    13:00 +30°C° 0 mm 1 mps 756 mmHg 46%
    14:00 +30°C° 0 mm 1 mps 755 mmHg 43%
    15:00 +30°C° 0 mm 1 mps 754 mmHg 41%
    16:00 +29°C° 0 mm 2 mps 754 mmHg 45%
    17:00 +27°C° 0 mm 2 mps 755 mmHg 48%
    18:00 +25°C° 0 mm 2 mps 755 mmHg 52%
    19:00 +25°C° 0 mm 2 mps 755 mmHg 53%
    20:00 +24°C° 0 mm 2 mps 755 mmHg 54%
    21:00 +23°C° 0 mm 2 mps 756 mmHg 55%
    22:00 +23°C° 0 mm 2 mps 756 mmHg 56%
    23:00 +21°C° 0 mm 2 mps 756 mmHg 57%

    Tomorrow, 22 November, Wednesday

    Time Temperature Precipitation Wind Pressure Humidity
    00:00 +22°C° 0 mm 1 mps 756 mmHg 58%
    01:00 +21°C° 0 mm 1 mps 755 mmHg 61%
    02:00 +21°C° 0 mm 1 mps 755 mmHg 63%
    03:00 +21°C° 0 mm 1 mps 755 mmHg 66%
    04:00 +20°C° 0 mm 1 mps 755 mmHg 70%
    05:00 +20°C° 0 mm 1 mps 755 mmHg 74%
    06:00 +20°C° 0 mm 1 mps 755 mmHg 78%
    07:00 +20°C° 0 mm 2 mps 755 mmHg 75%
    08:00 +23°C° 0 mm 2 mps 756 mmHg 72%
    09:00 +24°C° 0 mm 2 mps 757 mmHg 69%
    10:00 +25°C° 0 mm 2 mps 756 mmHg 64%
    11:00 +27°C° 0 mm 2 mps 756 mmHg 59%
    12:00 +28°C° 0 mm 2 mps 755 mmHg 54%
    13:00 +28°C° 0 mm 2 mps 755 mmHg 51%
    14:00 +29°C° 0 mm 1 mps 754 mmHg 49%
    15:00 +29°C° 0 mm 1 mps 753 mmHg 46%
    16:00 +28°C° 0 mm 1 mps 753 mmHg 50%
    17:00 +26°C° 0 mm 1 mps 753 mmHg 54%
    18:00 +25°C° 0 mm 1 mps 754 mmHg 58%
    19:00 +24°C° 0 mm 1 mps 754 mmHg 59%
    20:00 +24°C° 0 mm 1 mps 755 mmHg 61%
    21:00 +23°C° 0 mm 1 mps 755 mmHg 62%
    22:00 +23°C° 0 mm 1 mps 755 mmHg 63%
    23:00 +21°C° 0 mm 2 mps 755 mmHg 63%

    Day after tomorrow, 23 November, Thursday

    Time Temperature Precipitation Wind Pressure Humidity
    00:00 +21°C° 0 mm 2 mps 755 mmHg 63%
    01:00 +20°C° 0 mm 2 mps 755 mmHg 66%
    02:00 +20°C° 0 mm 2 mps 755 mmHg 68%
    03:00 +20°C° 0 mm 2 mps 754 mmHg 70%
    04:00 +19°C° 0 mm 2 mps 755 mmHg 72%
    05:00 +19°C° 0 mm 2 mps 755 mmHg 73%
    06:00 +19°C° 0 mm 2 mps 755 mmHg 75%
    07:00 +20°C° 0 mm 2 mps 756 mmHg 70%
    08:00 +21°C° 0 mm 2 mps 756 mmHg 66%
    09:00 +24°C° 0 mm 3 mps 757 mmHg 61%
    10:00 +25°C° 0 mm 3 mps 757 mmHg 57%
    11:00 +27°C° 0 mm 3 mps 756 mmHg 53%
    12:00 +28°C° 0 mm 3 mps 756 mmHg 48%
    13:00 +28°C° 0 mm 3 mps 755 mmHg 48%
    14:00 +28°C° 0 mm 2 mps 755 mmHg 47%
    15:00 +29°C° 0 mm 2 mps 754 mmHg 46%
    16:00 +27°C° 0 mm 2 mps 754 mmHg 50%
    17:00 +26°C° 0 mm 2 mps 754 mmHg 55%
    18:00 +24°C° 0 mm 1 mps 754 mmHg 59%
    19:00 +24°C° 0 mm 1 mps 755 mmHg 61%
    20:00 +23°C° 0 mm 1 mps 756 mmHg 63%
    21:00 +23°C° 0 mm 1 mps 756 mmHg 65%
    22:00 +22°C° 0 mm 1 mps 756 mmHg 66%
    23:00 +21°C° 0 mm 2 mps 756 mmHg 66%

    24 November, Friday

    Time Temperature Precipitation Wind Pressure Humidity
    00:00 +20°C° 0 mm 2 mps 756 mmHg 67%
    01:00 +20°C° 0 mm 2 mps 756 mmHg 68%
    02:00 +20°C° 0 mm 2 mps 756 mmHg 68%
    03:00 +20°C° 0 mm 1 mps 755 mmHg 68%
    04:00 +19°C° 0 mm 2 mps 756 mmHg 68%
    05:00 +19°C° 0 mm 2 mps 756 mmHg 68%
    06:00 +19°C° 0 mm 2 mps 756 mmHg 68%
    07:00 +20°C° 0 mm 2 mps 757 mmHg 65%
    08:00 +21°C° 0 mm 2 mps 757 mmHg 61%
    09:00 +24°C° 0 mm 3 mps 758 mmHg 57%
    10:00 +25°C° 0 mm 3 mps 757 mmHg 54%
    11:00 +26°C° 0 mm 3 mps 757 mmHg 50%
    12:00 +28°C° 0 mm 3 mps 757 mmHg 46%
    13:00 +28°C° 0 mm 2 mps 756 mmHg 45%
    14:00 +28°C° 0 mm 2 mps 755 mmHg 44%
    15:00 +28°C° 0 mm 2 mps 755 mmHg 43%
    16:00 +27°C° 0 mm 1 mps 755 mmHg 47%
    17:00 +26°C° 0 mm 1 mps 755 mmHg 51%
    18:00 +24°C° 0 mm 1 mps 755 mmHg 55%
    19:00 +24°C° 0 mm 1 mps 756 mmHg 56%
    20:00 +23°C° 0 mm 1 mps 756 mmHg 58%
    21:00 +23°C° 0 mm 1 mps 757 mmHg 60%
    22:00 +22°C° 0 mm 1 mps 757 mmHg 61%
    23:00 +22°C° 0 mm 1 mps 757 mmHg 62%

    25 November, Saturday

    Time Temperature Precipitation Wind Pressure Humidity
    00:00 +21°C° 0 mm 1 mps 757 mmHg 63%
    01:00 +21°C° 0 mm 1 mps 756 mmHg 64%
    02:00 +20°C° 0 mm 1 mps 756 mmHg 65%
    03:00 +20°C° 0 mm 1 mps 756 mmHg 66%
    04:00 +19°C° 0 mm 2 mps 757 mmHg 67%
    05:00 +18°C° 0 mm 2 mps 757 mmHg 68%
    06:00 +18°C° 0 mm 2 mps 757 mmHg 69%
    07:00 +20°C° 0 mm 2 mps 758 mmHg 65%
    08:00 +21°C° 0 mm 2 mps 758 mmHg 61%
    09:00 +22°C° 0 mm 3 mps 759 mmHg 57%
    10:00 +25°C° 0 mm 3 mps 758 mmHg 53%
    11:00 +26°C° 0 mm 3 mps 758 mmHg 48%
    12:00 +28°C° 0 mm 3 mps 757 mmHg 44%
    13:00 +28°C° 0 mm 2 mps 757 mmHg 43%
    14:00 +28°C° 0 mm 2 mps 756 mmHg 43%
    15:00 +28°C° 0 mm 2 mps 756 mmHg 42%
    16:00 +27°C° 0 mm 2 mps 756 mmHg 46%
    17:00 +26°C° 0 mm 2 mps 756 mmHg 50%
    18:00 +24°C° 0 mm 2 mps 757 mmHg 55%
    19:00 +24°C° 0 mm 1 mps 757 mmHg 57%
    20:00 +23°C° 0 mm 1 mps 758 mmHg 59%
    21:00 +22°C° 0 mm 1 mps 758 mmHg 62%
    22:00 +22°C° 0 mm 1 mps 758 mmHg 63%
    23:00 +22°C° 0 mm 1 mps 758 mmHg 64%

    26 November, Sunday

    Time Temperature Precipitation Wind Pressure Humidity
    00:00 +20°C° 0 mm 2 mps 758 mmHg 65%
    01:00 +20°C° 0 mm 2 mps 758 mmHg 66%
    02:00 +19°C° 0 mm 2 mps 758 mmHg 66%
    03:00 +19°C° 0 mm 2 mps 758 mmHg 67%
    04:00 +19°C° 0 mm 2 mps 758 mmHg 67%
    05:00 +18°C° 0 mm 2 mps 758 mmHg 67%
    06:00 +18°C° 0 mm 2 mps 758 mmHg 67%
    07:00 +19°C° 0 mm 2 mps 759 mmHg 63%
    08:00 +21°C° 0 mm 3 mps 759 mmHg 59%
    09:00 +22°C° 0 mm 3 mps 760 mmHg 55%
    10:00 +24°C° 0 mm 3 mps 759 mmHg 52%
    11:00 +26°C° 0 mm 3 mps 759 mmHg 48%
    12:00 +27°C° 0 mm 3 mps 758 mmHg 45%
    13:00 +28°C° 0 mm 3 mps 758 mmHg 44%
    14:00 +28°C° 0 mm 2 mps 757 mmHg 44%
    15:00 +28°C° 0 mm 2 mps 756 mmHg 43%
    16:00 +27°C° 0 mm 2 mps 756 mmHg 48%
    17:00 +25°C° 0 mm 2 mps 756 mmHg 52%
    18:00 +24°C° 0 mm 2 mps 757 mmHg 56%
    19:00 +23°C° 0 mm 2 mps 757 mmHg 58%
    20:00 +23°C° 0 mm 2 mps 757 mmHg 59%
    21:00 +21°C° 0 mm 2 mps 758 mmHg 61%
    22:00 +21°C° 0 mm 2 mps 758 mmHg 61%
    23:00 +20°C° 0 mm 2 mps 757 mmHg 61%
    Show more